Probability
0 0 0 0 0 0 0 0 0 0 0 0 0 0 0 0 0 0 0 0 0 0 0 0 0 0 0 0 0 1 2 2 2 9 25 37 37 33
0 0 0 0 0 0 0 0 0 0 0 0 0 0 0 0 0 0 0 0 0 0 0 0 0 0 0 0 0 0 1 1 1 7 20 31 31 28
0 0 0 0 0 0 0 0 0 0 0 0 0 0 0 0 0 0 0 0 0 0 0 0 0 0 0 0 0 0 0 0 1 5 13 19 20 20
0 0 0 0 0 0 0 0 0 0 0 0 0 0 0 0 0 0 0 0 0 0 0 0 0 0 0 0 0 0 0 0 0 2 5 9 13 15
0 0 0 0 0 0 0 0 0 0 0 0 0 0 0 0 0 0 0 0 0 0 0 0 0 0 0 0 0 0 0 0 0 0 1 4 8 11
0 0 0 0 0 0 0 0 0 0 0 0 0 0 0 0 0 0 0 0 0 0 0 0 0 0 0 0 0 0 0 0 0 0 0 1 3 5
0 0 0 0 0 0 0 0 0 0 0 0 0 0 0 0 0 0 0 0 0 0 0 0 0 0 0 0 0 0 0 0 0 0 0 1 1 2
0 0 0 0 0 0 0 0 0 0 0 0 0 0 0 0 0 0 0 0 0 0 0 0 0 0 0 0 0 0 0 0 0 0 0 0 0 1
0 0 0 0 0 0 0 0 0 0 0 0 0 0 0 0 0 0 0 0 0 0 0 0 0 0 0 0 0 0 0 0 0 0 0 0 0 0
0 0 0 0 0 0 0 0 0 0 0 0 0 0 0 0 0 0 0 0 0 0 0 0 0 0 0 0 0 0 0 0 0 0 0 0 0 0
0 0 0 0 0 0 0 0 0 0 0 0 0 0 0 0 0 0 0 0 0 0 0 0 0 0 0 0 0 0 0 0 0 0 0 0 0 0
0 0 0 0 0 0 0 0 0 0 0 0 0 0 0 0 0 0 0 0 0 0 0 0 0 0 0 0 0 0 0 0 0 0 0 0 0 0
0 0 0 0 0 0 0 0 0 0 0 0 0 0 0 0 0 0 0 0 0 0 0 0 0 0 0 0 0 0 0 0 0 0 0 0 0 0
0 0 0 0 0 0 0 0 0 0 0 0 0 0 0 0 0 0 0 0 0 0 0 0 0 0 0 0 0 0 0 0 0 0 0 0 0 0
0 0 0 0 0 0 0 0 0 0 0 0 0 0 0 0 0 0 0 0 0 0 0 0 0 0 0 0 0 0 0 0 0 0 0 0 0 0
0 0 0 0 0 0 0 0 0 0 0 0 0 0 0 0 0 0 0 0 0 0 0 0 0 0 0 0 0 0 0 0 0 0 0 0 0 0
0 0 0 0 0 0 0 0 0 0 0 0 0 0 0 0 0 0 0 0 0 0 0 0 0 0 0 0 0 0 0 0 0 0 0 0 0 0
0 0 0 0 0 0 0 0 0 0 0 0 0 0 0 0 0 0 0 0 0 0 0 0 0 0 0 0 0 0 0 0 0 0 0 0 0 0
0 0 0 0 0 0 0 0 0 0 0 0 0 0 0 0 0 0 0 0 0 0 0 0 0 0 0 0 0 0 0 0 0 0 0 0 0 0
0 0 0 0 0 0 0 0 0 0 0 0 0 0 0 0 0 0 0 0 0 0 0 0 0 0 0 0 0 0 0 0 0 0 0 0 0 0
0 0 0 0 0 0 0 0 0 0 0 0 0 0 0 0 0 0 0 0 0 0 0 0 0 0 0 0 0 0 0 0 0 0 0 0 0 0
0 0 0 0 0 0 0 0 0 0 0 0 0 0 0 0 0 0 0 0 0 0 0 0 0 0 0 0 0 0 0 0 0 0 0 0 0 0
0 0 0 0 0 0 0 0 0 0 0 0 0 0 0 0 0 0 0 0 0 0 0 0 0 0 0 0 0 0 0 0 0 0 0 0 0 0
Wind_Speed
14 15 13 11 11 11 11 11 12 14 16 16 13 13 12 13 17 17 18 24 29 31 32 33 34 34 35 35 35 35 35 35 34 34 34 34 32 30
12 13 14 11 11 11 11 11 12 14 16 14 14 15 16 14 20 20 19 28 30 31 32 33 33 34 34 34 34 34 34 34 34 33 34 33 31 28
14 14 16 14 12 11 11 11 12 13 16 17 15 16 20 20 18 17 17 18 18 28 31 32 33 33 34 34 34 33 33 33 33 32 33 31 29 27
16 16 16 13 16 13 12 13 13 14 15 20 17 16 20 20 19 19 17 16 17 25 30 32 32 33 33 33 32 32 32 31 31 31 31 30 29 26
16 16 16 15 16 13 14 13 12 13 14 16 18 16 16 16 18 18 19 17 17 20 26 28 30 30 31 31 31 31 30 30 30 29 29 29 28 27
16 15 15 16 16 15 13 15 14 15 15 15 16 16 15 16 15 15 15 14 15 15 19 21 25 28 30 30 30 30 29 29 28 28 28 28 28 26
15 15 16 19 21 17 13 13 14 13 13 14 15 15 14 14 14 14 15 15 16 14 15 15 15 15 16 20 24 25 26 27 27 27 27 27 26 25
15 15 16 19 22 26 26 25 21 16 15 15 15 16 17 17 15 14 16 17 17 12 14 15 14 15 14 13 19 23 24 25 25 26 26 26 25 24
15 14 12 13 18 15 19 22 21 24 24 18 18 18 18 17 18 19 18 18 18 15 15 17 14 15 13 14 23 24 25 25 25 25 25 25 24 23
15 15 15 14 13 14 12 14 15 15 17 14 14 16 16 17 16 17 18 19 19 15 14 16 14 14 14 13 20 23 24 24 24 24 24 23 22 22
15 15 15 15 18 19 14 15 16 14 16 21 22 22 25 25 21 14 15 15 16 14 11 12 13 13 14 13 13 19 20 21 23 23 23 22 21 21
13 14 19 19 18 19 14 14 15 13 11 12 14 16 16 17 20 14 12 13 14 13 9 8 10 10 10 9 8 8 9 14 18 20 21 21 21 14
10 10 10 18 20 20 17 13 15 14 12 12 11 11 11 10 10 10 10 11 13 13 10 10 10 10 10 10 10 9 8 7 8 11 17 20 21 16
10 9 9 15 17 18 15 14 17 15 9 9 10 10 10 9 9 10 12 13 14 16 15 14 12 11 11 12 11 9 8 8 6 7 7 13 18 20
10 13 14 15 15 13 14 15 13 9 8 9 10 10 9 10 10 10 12 12 14 14 14 14 13 12 11 12 11 10 9 8 7 6 6 7 9 10
12 13 16 15 12 11 11 9 7 7 8 9 10 10 10 10 10 10 10 10 10 10 10 12 12 13 12 13 11 11 9 7 6 6 6 6 7 9
10 7 7 7 7 7 7 7 7 7 8 8 8 9 9 9 10 9 9 10 10 11 10 8 8 10 13 12 11 10 9 9 9 7 6 6 6 8
12 8 8 8 8 7 7 7 6 7 7 7 8 8 9 9 10 9 9 9 10 10 10 8 8 7 7 9 14 12 9 8 7 7 6 6 6 7
11 9 8 8 7 7 6 6 6 6 6 7 7 8 8 9 9 9 9 9 9 10 9 8 7 7 8 8 6 14 10 7 6 6 6 6 6 6
9 9 8 7 7 6 6 6 6 6 6 6 7 8 8 8 9 9 9 10 10 10 10 8 7 7 7 7 6 5 11 9 6 5 5 5 6 6
9 8 7 7 6 6 6 5 6 6 6 6 7 8 7 8 9 9 9 13 12 10 10 9 8 11 8 7 8 7 6 12 12 6 4 5 5 5
8 8 7 7 6 6 5 5 5 6 6 6 7 7 7 7 9 10 9 9 9 9 10 9 9 8 6 8 9 8 7 5 10 16 16 12 5 4
8 7 7 6 6 6 5 6 6 6 6 6 6 7 7 7 8 8 9 9 9 10 10 9 8 7 7 7 8 8 9 7 4 5 8 14 18 17
Wind_Direction
220 223 229 236 238 242 247 251 264 279 283 287 288 287 285 282 280 279 278 279 280 280 280 280 281 281 282 282 283 283 284 285 286 285 283 280 278 266
218 225 228 233 237 240 243 247 250 260 274 281 286 286 287 281 280 279 278 279 280 280 280 281 281 281 281 281 281 281 281 281 282 283 283 282 282 272
216 223 230 234 238 241 242 245 249 252 265 276 280 285 286 284 282 280 279 278 278 278 280 280 281 280 280 279 278 278 278 278 279 281 284 282 285 278
218 222 230 231 236 241 244 247 251 253 262 275 281 284 283 284 284 283 282 279 277 279 280 280 280 280 279 278 277 277 276 276 277 279 281 283 285 282
217 221 227 230 236 239 242 248 252 256 259 268 276 280 282 282 284 282 281 280 280 279 281 280 279 279 278 277 276 275 274 273 273 275 278 281 281 282
219 222 226 229 234 240 244 249 253 258 261 265 272 279 282 285 285 287 287 285 283 283 281 280 279 279 277 275 273 272 270 270 270 270 272 275 277 279
219 224 228 231 234 237 240 246 249 255 263 269 276 282 285 289 290 293 290 291 286 285 284 281 280 276 275 273 270 268 266 266 265 266 268 270 273 275
218 223 230 236 241 245 250 253 256 262 270 275 279 282 286 292 294 293 292 291 290 288 286 284 282 278 275 270 268 267 266 264 263 262 263 267 269 271
218 223 227 232 237 241 252 261 267 270 270 271 276 280 288 292 293 291 288 287 287 292 290 284 281 278 277 272 271 267 264 262 260 258 260 262 262 265
219 223 229 234 233 238 245 254 258 261 263 266 267 274 278 283 283 285 289 288 285 282 279 281 283 282 282 277 273 267 263 259 256 255 255 255 256 260
221 225 230 237 241 245 249 257 263 264 266 267 267 274 281 288 290 291 290 288 289 290 286 279 284 289 286 280 276 270 263 257 253 250 249 248 250 254
221 224 230 235 242 246 248 256 265 272 274 277 276 277 280 283 285 281 282 284 287 290 287 280 285 295 293 285 291 295 276 259 252 247 244 243 242 245
218 220 223 232 240 247 252 257 265 276 282 282 280 280 280 277 275 273 271 273 278 277 281 286 282 282 278 289 297 296 291 278 257 245 237 237 236 234
218 219 223 230 238 248 255 260 271 281 281 281 282 283 285 287 288 286 280 273 268 272 277 275 272 274 276 280 284 293 299 287 270 251 235 226 227 229
219 223 226 232 240 250 256 265 273 275 274 276 279 283 288 290 290 286 282 276 272 269 267 263 260 263 262 267 274 284 296 295 289 271 247 228 214 210
221 225 229 236 239 247 255 261 260 262 268 273 279 285 289 289 289 291 294 295 290 286 274 264 260 258 259 260 264 270 272 277 288 292 279 248 222 209
204 207 214 220 228 233 240 248 253 257 262 267 276 284 289 291 293 296 294 292 290 293 296 288 269 259 255 257 258 257 261 263 266 274 275 255 231 215
199 205 214 220 228 235 241 248 252 257 263 270 276 282 288 293 296 296 294 292 292 293 294 296 291 279 258 245 233 248 252 257 262 261 256 250 229 216
206 210 215 220 226 230 237 246 255 260 267 270 274 280 287 291 294 297 298 297 295 294 294 293 287 279 275 277 248 215 233 249 249 248 240 241 237 216
208 211 214 218 222 227 233 242 252 259 261 266 273 278 284 289 293 297 299 300 299 298 296 291 283 276 272 284 296 273 226 242 250 246 239 241 251 255
203 208 211 214 219 224 229 237 247 257 263 269 273 278 283 288 292 296 297 300 300 297 297 296 292 289 279 270 266 263 251 225 234 247 242 228 224 220
202 205 208 211 215 220 224 231 244 254 261 264 273 279 284 288 292 295 298 300 298 296 297 294 292 283 260 252 260 271 275 257 231 241 255 267 255 209
201 201 202 205 211 216 220 229 241 255 261 267 274 280 286 290 293 295 297 297 297 299 300 300 297 285 268 259 261 265 268 263 245 223 237 245 253 268